Tracking 29892 objects as of 21-Nov-2024
HD Live streaming from Space Station
objects crossing your sky now

STARLINK-5406

Track STARLINK-5406 now!
10-day predictions
STARLINK-5406 is classified as:


NORAD ID: 54860
Int'l Code: 2022-177AS
Perigee: 565.4 km
Apogee: 567.0 km
Inclination: 43.0 °
Period: 95.8 minutes
Semi major axis: 6937 km
RCS: Unknown
Launch date: December 28, 2022
Source: United States (US)
Launch site: AIR FORCE EASTERN TEST RANGE (AFETR)
Your satellite tracking list
Your tracking list is empty




NASA's NSSDC Master Catalog

Two Line Element Set (TLE):
1 54860U 22177AS  24325.94651278 -.00000717  00000-0 -38021-4 0  9995
2 54860  43.0037 174.3706 0001154 268.2436  91.8274 15.02527550104864
Source of the keplerian elements: AFSPC